Regional Weather Roundup
Issued by NWS State College, PA

Home | Current Version | Previous Version | Text Only | Print | Product List | Glossary On
Versions: 1 2 3 4 5 6 7 8 9 10 11 12 13 14 15 16 17 18 19 20 21 22 23 24 25 26 27 28 29 30 31 32 33 34 35 36 37 38 39 40 41 42 43 44 45 46 47 48 49 50
000
ASUS41 KCTP 251710
RWRCTP

REGIONAL WEATHER ROUNDUP
NATIONAL WEATHER SERVICE STATE COLLEGE PA
100 PM EDT MON MAY 25 2015

Note: "fair" indicates few or no clouds below 12,000 feet with no
significant weather and/or obstructions to visibility.

* = STATION THAT DOES NOT REPORT PRECIPITATION /E.G. RAIN...SNOW...ETC/
    THUNDER OR FOG.

PAZ002>004-007>009-013>016-020>023-029>032-251800-
WESTERN PENNSYLVANIA

CITY           SKY/WX    TMP DP  RH WIND       PRES   REMARKS
ERIE           PTSUNNY   83  59  44 S18G24    30.07F
MEADVILLE      PTSUNNY   76  59  55 SW15G23   30.13F
FRANKLIN*      PTSUNNY   75  57  53 W12       30.18S
NEW CASTLE     PTSUNNY   82  61  49 SW13      30.16F
BEAVER COUNTY  NOT AVBL
BUTLER*        PTSUNNY   81  57  44 W9G18     30.19F
PITTSBURGH INT PTSUNNY   81  56  42 SW14G21   30.18S
PITTSBURGH     MOSUNNY   81  54  39 SW9G17    30.18F
INDIANA*       SUNNY     81  57  44 W10G17    30.23F
LATROBE        MOSUNNY   81  57  44 SW14      30.21F
WASHINGTON CO* MOSUNNY   81  59  47 SW8G18    30.21F
$$

PAZ004>006-010>012-017>019-024>028-033>037-041-042-045-046-049>053-251800-
CENTRAL PENNSYLVANIA

CITY           SKY/WX    TMP DP  RH WIND       PRES   REMARKS
BRADFORD       MOSUNNY   77  54  44 SW9G21    30.17F
DUBOIS         MOSUNNY   80  54  40 SW13G23   30.18F
CLEARFIELD     SUNNY     82  54  37 SW13      30.19F
JOHNSTOWN      SUNNY     77  53  43 SW9       30.23F
ALTOONA        SUNNY     83  53  35 SW10      30.21F
STATE COLLEGE  SUNNY     81  55  41 SW8       30.19F
WILLIAMSPORT   MOSUNNY   83  58  42 SE13      30.15F
SELINSGROVE    SUNNY     83  60  45 SW7       30.19F
FT INDIANTOWN  MOSUNNY   82  59  45 SW13G18   30.20F
CAPITAL CITY   SUNNY     82  56  40 S8G21     30.20F
HARRISBURG     PTSUNNY   82  58  43 SW9       30.19F
YORK           SUNNY     81  60  48 VRB6G16   30.21F
$$

PAZ038>040-043-044-047-048-054-055-060>062-067>071-251800-
EASTERN PENNSYLVANIA

CITY           SKY/WX    TMP DP  RH WIND       PRES   REMARKS
SCRANTON       MOSUNNY   85  54  34 SW13      30.18F
MOUNT POCONO   MOSUNNY   79  53  40 SW13G20   30.25F
ALLENTOWN      SUNNY     84  57  39 SW9G21    30.20F
QUAKERTOWN*    SUNNY     82  57  42 SW9G18    30.23F
READING        SUNNY     86  56  35 S16G22    30.20F
LANCASTER      SUNNY     82  58  43 SW13G21   30.21F
COATESVILLE    SUNNY     81  59  47 S10G17    30.25F
POTTSTOWN      SUNNY     83  56  39 S13G23    30.24F
BLUE BELL      SUNNY     84  61  45 S13       30.23S
DOYLESTOWN     SUNNY     81  56  42 S12G17    30.22F
WILLOW GROVE   NOT AVBL
NORTH PHILA    SUNNY     85  53  33 SW16G22   30.24F
PHILADELPHIA   MOSUNNY   85  56  37 S18       30.24F
$$


USA.gov is the U.S. government's official web portal to all federal, state and local government web resources and services.